Regional Weather Roundup
Issued by NWS Charleston, SC

Current Version | Previous Version | Text Only | Print | Product List | Glossary Off
Versions: 1 2 3 4 5 6 7 8 9 10 11 12 13 14 15 16 17 18 19 20 21 22 23 24 25 26 27 28 29 30 31 32 33 34 35 36 37 38 39 40 41 42 43 44 45 46 47 48 49 50

000
ASUS42 KCHS 310210
RWRCHS
REGIONAL WEATHER ROUNDUP
NATIONAL WEATHER SERVICE CHARLESTON SC
1000 PM EDT THU OCT 30 2014

NOTE: "FAIR" INDICATES FEW OR NO CLOUDS BELOW 12,000 FEET WITH NO
SIGNIFICANT WEATHER AND/OR OBSTRUCTIONS TO VISIBILITY.

NOT ALL STATIONS ARE QUALITY CONTROLLED BY THE NATIONAL
WEATHER SERVICE. USE DATA WITH CAUTION...ESPECIALLY
DEWPOINT OBSERVATIONS.

SCZ027-030-031-034>040-042>050-310300-
...SOUTH CAROLINA...

CITY           SKY/WX    TMP DP  RH WIND       PRES   REMARKS
N CHARLESTON   CLEAR     59  55  87 CALM      29.94S
WATERFRONT PRK   N/A     64 N/A N/A N9          N/A
FORT JOHNSON   NOT AVBL
JOHNS ISLAND   CLEAR     61  61 100 CALM      29.94S
PINOPOLIS      NOT AVBL
MONCKS CORNER  FAIR      54  54 100 CALM      29.95S
SUMMERVILLE    FAIR      55  55 100 CALM      29.96R
BEAUFORT MCAS  PTCLDY    64  56  75 NE3       29.89R
BEAUFORT ARPT  FAIR      63  59  88 CALM      29.95R
HILTON HEAD IS NOT AVBL
GEORGETOWN     NOT AVBL
WALTERBORO     CLEAR     55 N/A N/A CALM      29.96S
ORANGEBURG     PTCLDY    57  48  72 N3        29.96R
BARNWELL       MOCLDY    55  50  82 CALM      29.96S
AIKEN          FAIR      52  45  76 CALM      29.99S
MANNING        FAIR      54 N/A N/A CALM      29.96R
KINGSTREE      NOT AVBL
COLUMBIA       CLEAR     53  46  77 CALM      29.96S
SUMTER         PTCLDY    55  47  73 NE5       29.95R
FLORENCE       CLEAR     54  48  80 CALM      29.96S
MYRTLE BEACH   PTCLDY    63  52  67 NE8       29.95S
N MYRTLE BEACH MOCLDY    58  52  80 N6        29.95S

$$

GAZ063-065-086>088-099>101-113>116-118-119-134-136>141-150-310300-
...GEORGIA...

CITY           SKY/WX    TMP DP  RH WIND       PRES   REMARKS
SAVANNAH ARPT  PTCLDY    65  59  81 E7        29.94S
HUNTER AAF     CLEAR     64  60  87 NE6       29.91F
FORT STEWART   CLEAR     58  55  89 CALM      29.92F
STATESBORO     NOT AVBL
SYLVANIA       CLEAR     60  59  96 CALM      29.95S
CLAXTON        FAIR      55  55 100 CALM      29.94F
THOMSON        CLEAR     50  50 100 CALM      30.01S
AUGUSTA-BUSH   CLEAR     50  45  83 CALM      29.96R
AUGUSTA-DANIEL CLEAR     61  42  49 N6        29.96S
SWAINSBORO     FAIR      63  46  55 MISG      29.96R
VIDALIA        CLEAR     57  54  88 CALM      29.94S
ALMA           CLEAR     59  50  72 N3        29.93S
WAYCROSS       CLEAR     58  57  96 CALM      29.93S
JESUP          FAIR      61  59  94 CALM      29.93S
BRUNSWICK      PTCLDY    64  63  94 N5        29.93F
SAINT SIMONS   PTCLDY    66  62  87 N6        29.91F

$$

SCZ027-028-034-036>038-045-046-048>050-GAZ119-141-310300-
...LAKE AND SUPPLEMENTAL COASTAL OBSERVATIONS...

STATION/POSITION TIME  TEMP    WIND        PRES    WAVE   SWELL
                       AIR SEA DIR/SP/G            HT/PER HT/PER/DIR
                 (UTC) (F)     (DEG/KT/KT) (MB)    (FT/S) (FT/S/D)
UPR LAKE MARION  NOT AVBL
WINYAH BAY       0100   61     350/  3     1014.0R
LAKE MURRAY      0100   60      20/  2/  3 1014.2S
ACE BASIN NERRS  0100   61        CALM     1013.0S
FORT PULASKI     0100                      1013.8R
SAPELO ISLAND    NOT AVBL

$$

ANZ835-935-AMZ111-154-330-350-352-354-374-450-454-472-310300-
...C-MAN AND BUOY OBSERVATIONS...

STATION/POSITION TIME  TEMP    WIND        PRES    WAVE   SWELL
                       AIR SEA DIR/SP/G            HT/PER HT/PER/DIR
                 (UTC) (F)     (DEG/KT/KT) (MB)    (FT/S) (FT/S/D)
FOLLY BEACH CMAN 0100   65      20/ 11/ 13 1014.0F
BUOY 41004       0200   70 77   20/ 16/ 17 1012.0F   4/ 5   2/ 8
BUOY 41008       0200   70 74   50/  8/ 10 1013.3R   2/ 4   2/140/ 7
5E ST. MARYS GA  0200      76                N/A     2/ 7
FRYING PAN BUOY  0200   67 72   40/ 17/ 21 1013.4F   4/ 6
BUOY 41025       0200   65      10/ 19/ 25 1013.7S   4/ 6   2/ 40/ 8
CAPE LOOKOUT NC  0100   63      30/ 14/ 18 1014.4S
BUOY 41002       0148   75 77  170/  8/ 10 1011.9F   3/ 6   3/130/ 6
BUOY 41010       0200   79 82   CALM  /  2 1012.2S   3/ 7   3/120/ 7
BUOY 41012       NOT AVBL
ST AUGUSTINE FL  0200   65     230/  3/  4 1013.6F
CAPERS NEARSHORE NOT AVBL
FRIPP NEARSHORE  NOT AVBL


$$



USA.gov is the U.S. government's official web portal to all federal, state and local government web resources and services.